Location: Unspecified
(0.0000°N, 0.0000°E)
Time: 09:09:40
(UTC+00:00)

A-11 Canister half - Pass Details

Date: 19 June 2024
Orbit: 1515 x 1684 km, 47.2° (Epoch: 23 July)

Event Time Altitude Azimuth Distance (km) Brightness Sun altitude
Rises 00:56:36 0° 356° (N) 4,724 11.9 -63.0°
Reaches altitude 10° 01:03:59 10° 34° (NE) 3,700 11.3 -62.1°
Maximum altitude 01:05:25 10° 43° (NE) 3,662 11.2 -61.9°
Drops below altitude 10° 01:06:51 10° 53° (NE) 3,688 11.3 -61.7°
Sets 01:14:02 0° 90° (E) 4,653 11.8 -60.7°
